Mansfield, OH

1:52 PM EDT on June 26, 2017 (GMT -0400)
Mansfield Lahm Regional

Weather History for KMFD - March, 2014

Change the Weather History Date:

Thursday, March 27, 2014

  Actual Average Record
Temperature  
Mean Temperature 36 °F 41 °F  
Max Temperature 48 °F 51 °F 79 °F (1998)
Min Temperature 24 °F 32 °F 12 °F (1965)
Degree Days  
Heating Degree Days 29 24  
Month to date heating degree days 927 775  
Since 1 July heating degree days 5971 5400  
Cooling Degree Days 0 0  
Month to date cooling degree days 0 0  
Year to date cooling degree days 0 0  
Moisture  
Dew Point 20 °F    
Average Humidity 54    
Maximum Humidity 70    
Minimum Humidity 37    
Precipitation  
Precipitation 0.12 in 0.12 in 0.58 in (1983)
Month to date precipitation 1.46 2.87  
Year to date precipitation 5.79 8.13  
Snow  
Snow 0.00 in 0.20 in - ()
Month to date snowfall 7.5 7.2  
Since 1 July snowfall 60.3 45.1  
Snow Depth 0.00 in    
Sea Level Pressure  
Sea Level Pressure 30.05 in    
Wind  
Wind Speed 16 mph (SSE)    
Max Wind Speed 25 mph    
Max Gust Speed 31 mph    
Visibility 10 miles    
Events Rain , Thunderstorm    
T = Trace of Precipitation, MM = Missing Value Source: NWS Daily Summary

Daily Weather History Graph

Daily Weather History Graph

Search for Another Location

Airport or City:

Trip Planner

Search our weather history database for the weather conditions in past years. The results will help you decide how hot, cold, wet, or windy it might be!

Date:

Astronomy

Mar. 27, 2014 Rise Set
Actual Time 7:21 AM EDT 7:49 PM EDT
Civil Twilight 6:54 AM EDT 8:17 PM EDT
Nautical Twilight 6:22 AM EDT 8:49 PM EDT
Astronomical Twilight 5:48 AM EDT 9:22 PM EDT
Moon 5:13 AM EDT (3/27) 4:34 PM EDT (3/27)
Length of Visible Light 13h 22m
Length of Day
12h 27m
Waning Crescent, 13% of the Moon is Illuminated
Mar 27
Waning Crescent
Mar 30
New
Apr 7
First Quarter
Apr 15
Full
Apr 22
Last Quarter

Hourly Weather History & Observations

Time (EDT) Temp. Windchill Dew Point Humidity Pressure Visibility Wind Dir Wind Speed Gust Speed Precip Events Conditions
12:52 AM 25.0 °F 15.5 °F 12.9 °F 60% 30.27 in 10.0 mi SSE 9.2 mph - N/A   Clear
1:52 AM 24.1 °F 15.2 °F 14.0 °F 65% 30.25 in 10.0 mi SSE 8.1 mph - N/A   Clear
2:52 AM 25.0 °F 14.2 °F 14.0 °F 63% 30.25 in 10.0 mi South 11.5 mph - N/A   Partly Cloudy
3:52 AM 27.0 °F 15.6 °F 12.9 °F 56% 30.21 in 10.0 mi SSE 13.8 mph - N/A   Scattered Clouds
4:52 AM 27.0 °F 15.2 °F 12.9 °F 56% 30.20 in 10.0 mi SSE 15.0 mph - N/A   Clear
5:52 AM 27.0 °F 16.7 °F 12.9 °F 56% 30.19 in 10.0 mi South 11.5 mph - N/A   Clear
6:52 AM 28.0 °F 16.1 °F 12.0 °F 51% 30.18 in 10.0 mi SSE 16.1 mph - N/A   Mostly Cloudy
7:52 AM 30.0 °F 19.5 °F 12.9 °F 49% 30.20 in 10.0 mi SSE 13.8 mph - N/A   Overcast
8:52 AM 30.9 °F 19.8 °F 14.0 °F 50% 30.18 in 10.0 mi SSE 16.1 mph 21.9 mph N/A   Overcast
9:52 AM 34.0 °F 23.8 °F 15.1 °F 46% 30.15 in 10.0 mi South 16.1 mph 25.3 mph N/A   Mostly Cloudy
10:52 AM 37.0 °F 26.7 °F 16.0 °F 42% 30.13 in 10.0 mi South 19.6 mph 24.2 mph N/A   Overcast
11:52 AM 39.0 °F 29.3 °F 16.0 °F 39% 30.11 in 10.0 mi South 19.6 mph 24.2 mph N/A   Overcast
12:52 PM 41.0 °F 32.5 °F 18.0 °F 40% 30.09 in 10.0 mi South 17.3 mph - N/A   Overcast
1:52 PM 43.0 °F 34.2 °F 19.0 °F 38% 30.05 in 10.0 mi South 20.7 mph 27.6 mph N/A   Overcast
2:52 PM 43.0 °F 34.2 °F 24.1 °F 47% 30.02 in 10.0 mi South 20.7 mph 27.6 mph 0.00 in   Overcast
3:52 PM 43.0 °F 35.1 °F 23.0 °F 45% 29.99 in 10.0 mi South 17.3 mph 28.8 mph N/A   Overcast
4:52 PM 41.0 °F 33.1 °F 28.0 °F 60% 29.97 in 9.0 mi South 15.0 mph - 0.01 in Rain Light Rain
5:52 PM 41.0 °F 32.5 °F 27.0 °F 57% 29.94 in 10.0 mi SSE 17.3 mph 25.3 mph 0.01 in Rain Light Rain
6:52 PM 44.1 °F 36.2 °F 25.0 °F 47% 29.90 in 10.0 mi SSE 18.4 mph 26.5 mph N/A   Overcast
7:52 PM 45.0 °F 36.9 °F 24.1 °F 44% 29.86 in 10.0 mi SSE 20.7 mph 27.6 mph N/A   Overcast
8:52 PM 46.9 °F - 23.0 °F 39% 29.83 in 10.0 mi SSE 18.4 mph 27.6 mph N/A   Mostly Cloudy
9:52 PM 48.0 °F - 26.1 °F 42% 29.80 in 10.0 mi SSE 19.6 mph 27.6 mph 0.00 in Rain , Thunderstorm Light Rain
10:13 PM 46.4 °F 40.1 °F 28.4 °F 50% 29.81 in 8.0 mi South 15.0 mph - 0.01 in Rain Light Rain
10:52 PM 43.0 °F 35.4 °F 35.1 °F 74% 29.84 in 8.0 mi South 16.1 mph - 0.08 in Rain Light Rain
11:52 PM 45.0 °F 38.2 °F 36.0 °F 71% 29.81 in 10.0 mi South 15.0 mph - 0.02 in Rain Light Rain